COSMOS 2251 DEB, 37988

Orbit data source: Space-Track

COSMOS 2251 DEB, 37988 is space debris in LEO originally from a launch on Wed, 16 Jun 1993 UTC launched from the Plesetsk Missile And Space Complex (PKMTR). The debris from Iridium 33, an American commercial communications satellite, has been tracked extensively since its accidental collision with the defunct Russian satellite Cosmos 2251 in 2009. This event, occurring at high speed in low Earth orbit (LEO), generated thousands of pieces of space debris, significantly increasing the risk of further collisions. The Iridium 33 debris cloud has impacted space traffic management and orbital debris mitigation strategies, making it a subject of ongoing study in space situational awareness.

Loading next visibility...
Identifier
37988, 1993-036BQP
Orbit
LEO
Country
Flag of CISCIS
Related business
Manufacturer
Unknown
Mission
Spacecraft
Bus & Motor
Unknown
Mass
Unknown
Launch date (UTC)
Icon of a cake. It is the launch day of the satellite!1993-06-16 (33 years ago)
Launch vehicle
Unknown
Launch site
Plesetsk Missile And Space Complex (PKMTR)
Object type
Payload
Rocket body
Debris
Shape & HBR
Unknown shape, 0.1 m
Radar Cross Section
Small (<0.1 m²)

Expand to show TLE details & history
Last TLE update: 3 days ago

TLE from 3 days ago
0 COSMOS 2251 DEB
1 37988U 93036BQP 26164.88865424  .00004215  00000-0  67091-3 0  9998
2 37988  74.0632  29.3918 0061396  21.1112 339.2572 14.71071755260876
Epoch: 2026-06-13T21:19Z
TLE epoch observation values (Epoch: 2026-06-13T21:19:39.726Z)
Latitude
-0.00003°
Longitude
167.27899°
Altitude
619.933 km
Speed
7.571 km/s
True Right ascension
01h 57m 34s
True Declination
0° 00' 00"
Sunlit
Object was in daylight at epoch
Visualization orbit readout
Latitude
Unknown
Longitude
Unknown
Altitude
Unknown
Speed
Unknown
Apparent Right ascension
Unknown
Apparent Declination
Unknown
Sunlit
N/A
Visualization observer readout
Local Sidereal Time
03:25:30
Azimuth
Unknown
Elevation
Unknown
Doppler factor
Unknown
Orbital elements
Apogee altitude
698.414 km
Perigee altitude
612.05 km
Semi-major axis
7,033.369 km
Eccentricity
0.00614
Inclination
74.0632°
RAAN
29.3918°
Arg. of periapsis
21.1112°
True anomaly
339.00622°
Mean anomaly
339.2572°
Eccentric anomaly
339.13189°
Mean motion
3.67958 °/min
Orbital period
97.84 mins
BSTAR
0.00067091

Documentation

Showing up to 5 results
|